Lid_Strength_Index
8 12 14 12 11 11 12 13 14 12 11 11 12 12 13 12 13 13 11 9 8 8 9 9 6 3 3 4 5 5 5 5 5 6 6 6 6 6 6 6 6 6 6 6
11 14 10 9 10 11 12 14 14 12 11 11 13 13 13 13 13 13 13 12 9 10 11 10 9 7 7 6 5 5 5 5 6 6 6 6 6 6 7 6 6 6 6 7
13 12 9 10 12 13 13 14 14 14 12 12 14 14 14 14 13 14 13 12 12 11 11 11 10 10 10 9 8 8 7 7 7 6 6 7 7 8 8 8 8 8 8 8
12 10 11 11 13 12 15 11 11 13 14 17 13 19 14 14 15 15 14 14 13 12 11 11 11 11 11 11 9 9 9 9 9 8 8 8 8 8 8 9 9 9 9 8
14 13 12 13 12 10 13 10 11 12 14 15 15 17 15 15 17 16 14 14 13 12 12 12 11 11 11 11 11 11 11 10 10 10 9 10 10 10 10 11 11 10 9 8
13 11 12 12 11 10 10 13 13 14 14 19 16 16 16 18 15 15 15 13 13 13 13 12 12 12 12 13 12 12 12 13 12 12 12 12 12 12 13 12 11 11 10 9
14 14 13 12 13 11 12 14 19 20 20 21 17 17 15 14 15 14 14 13 13 13 13 13 13 13 13 13 14 14 14 14 14 14 13 13 13 13 11 11 12 12 12 11
16 18 15 13 14 14 13 14 18 23 22 21 17 19 15 13 13 14 13 13 13 13 12 13 14 14 14 14 15 15 15 15 15 14 14 13 12 12 12 12 12 12 12 12
17 17 13 13 13 13 15 16 15 18 21 22 20 19 17 16 16 14 14 13 13 13 14 14 14 15 15 15 15 15 15 15 15 15 14 13 13 13 13 13 13 13 13 12
15 18 14 13 12 13 14 14 17 18 22 24 21 22 20 18 17 15 15 14 13 14 14 14 14 14 15 15 15 16 16 16 16 15 13 13 13 13 13 13 14 14 13 13
13 15 16 14 15 15 15 16 16 16 18 21 22 20 18 18 16 15 14 14 14 15 15 14 14 15 15 16 17 16 16 16 16 14 14 14 14 14 14 14 14 14 14 14
12 15 17 16 15 13 14 15 15 18 19 20 21 22 17 17 16 14 15 14 14 14 15 15 14 15 17 17 17 17 16 15 15 14 15 15 14 14 15 15 15 14 14 14
13 17 21 18 16 16 15 15 14 16 18 20 23 21 16 16 15 14 14 14 15 15 15 15 15 15 16 17 16 15 15 14 14 15 15 15 15 15 15 15 14 14 15 15
12 17 17 19 18 17 18 17 15 15 19 20 20 19 18 17 16 15 14 15 15 14 15 15 14 14 16 15 15 15 14 15 15 15 15 15 15 15 15 15 15 15 15 15
15 21 19 18 18 17 18 18 16 17 16 19 18 18 15 16 15 15 14 14 14 15 15 14 14 14 14 14 15 14 15 15 15 15 15 15 15 15 15 15 15 15 15 15
16 22 19 24 18 19 20 18 18 16 15 16 15 16 12 14 15 15 14 14 14 14 13 13 13 13 13 13 14 14 14 14 15 15 15 16 16 16 15 16 16 16 16 16
17 20 24 25 22 24 25 20 18 17 17 15 17 13 14 14 14 14 14 14 13 13 12 13 13 11 11 13 13 14 14 15 15 15 16 16 16 16 16 16 16 16 16 16
22 23 27 26 27 28 19 17 17 16 15 15 15 14 13 13 13 13 13 13 12 11 11 11 11 12 12 12 13 14 15 15 15 16 16 16 16 16 16 16 16 16 16 17
16 19 27 25 31 21 17 19 18 18 18 17 16 14 13 14 15 14 13 12 11 10 10 10 10 12 13 13 14 15 15 16 16 16 16 16 16 16 16 17 17 17 17 17
16 18 22 33 29 28 19 18 16 17 21 18 17 16 16 15 17 15 13 11 11 11 11 12 13 13 13 14 15 15 16 16 16 16 16 16 16 17 17 17 17 17 17 16
19 24 27 29 30 23 17 17 16 22 19 18 18 16 16 16 14 13 13 13 12 12 13 13 14 14 14 15 15 16 16 16 17 16 16 17 17 17 17 17 17 17 17 17
21 23 28 32 28 23 17 17 19 16 16 17 17 16 15 14 14 14 14 15 14 13 14 14 15 15 16 15 15 16 16 17 17 17 18 18 18 17 17 18 18 18 18 18
21 20 21 21 20 17 16 16 15 15 15 16 17 16 16 15 15 15 15 15 15 15 15 15 15 16 16 16 16 16 17 17 18 19 20 20 20 18 18 19 19 19 19 19
20 21 22 21 18 17 16 15 15 15 15 15 15 16 15 15 15 14 15 15 15 15 16 16 16 17 17 17 17 17 18 19 21 21 21 20 20 20 20 19 19 19 19 18
19 18 21 21 16 16 16 15 14 14 15 15 16 15 15 15 15 15 15 16 16 16 16 17 17 17 18 18 19 19 20 21 21 21 21 21 20 21 21 20 20 19 18 16
19 18 17 17 14 14 14 15 15 15 14 14 15 17 17 15 15 16 16 16 17 17 17 17 18 18 18 19 21 23 24 22 22 22 22 21 21 22 21 21 20 17 16 14